Showing default

AFR-1, 56964

Orbit data source: Space-Track

AFR-1, 56964 is a payload satellite owned by Azista BST (IN) in SSO that was launched on Mon, 12 Jun 2023 UTC via an FALCON 9 launch vehicle from the Air Force Western Test Range (AFWTR). Payload-class satellites include a variety of spacecraft equipped with specific instruments for various scientific and technological missions. These include communications satellites like Starlink; space stations such as the ISS; scientific satellites like the Hubble; Earth observation satellites from companies like Planet Labs, Umbra, and HawkEye 360; GPS; miniature CubeSats for education and research; and military/defense satellites.

Loading next visibility...
Identifier
56964, 2023-084AJ
Orbit
SSO
Country
Flag of ININ / IND
Related business
Manufacturer
Azista BST
Mission
Operational Commercial Imaging
Bus & Motor
AFR, Unknown motor
Mass
80 kg wet, 80 kg dry
Launch date (UTC)
2023-06-12 (3 years ago)
Launch vehicle
FALCON 9
Launch site
Air Force Western Test Range (AFWTR)
Object type
Payload
Rocket body
Debris
Shape & HBR
Box + 1 Pan, 0.5 m
Radar Cross Section
1.100 m², Medium (>0.1 m² and < 1m²)

Expand to show TLE details & history
Last TLE update: 14 hours ago

TLE from 14 hours ago
0 AFR-1
1 56964U 23084AJ  25350.93144138  .00004752  00000-0  18544-3 0  9998
2 56964  97.6022 118.8364 0009613 259.6552 100.3603 15.26382550139409
Epoch: 2025-12-16T22:21Z
TLE epoch observation values (Epoch: 2025-12-16T22:21:16.535Z)
Latitude
0.00004°
Longitude
57.70893°
Altitude
490.923 km
Speed
7.619 km/s
True Right ascension
07h 55m 20s
True Declination
0° 00' 00"
Sunlit
Object was in full shadow at epoch
Visualization orbit readout
Latitude
Unknown
Longitude
Unknown
Altitude
Unknown
Speed
Unknown
Apparent Right ascension
Unknown
Apparent Declination
Unknown
Sunlit
N/A
Visualization observer readout
Local Sidereal Time
10:37:22
Azimuth
Unknown
Elevation
Unknown
Doppler factor
Unknown
Orbital elements
Apogee altitude
490.199 km
Perigee altitude
477.007 km
Semi-major axis
6,861.74 km
Eccentricity
0.00096
Inclination
97.6022°
RAAN
118.8364°
Arg. of periapsis
259.6552°
True anomaly
100.46864°
Mean anomaly
100.3603°
Eccentric anomaly
100.41447°
Mean motion
3.81849 °/min
Orbital period
94.28 mins
BSTAR
0.00018544
Loading maneuver chart data...
Computing Atmospheric mass density...
Loading historical data...
Loading historical data...
Loading historical data...
Loading historical data...
Loading historical data...
Loading historical data...
Loading historical data...

Documentation

Showing up to 5 results
|